Weather History for Eastsound, WA

Change the Weather History Date:

Monday, October 7, 2013

  Actual Average (KBLI) Record (KBLI)
Temperature  
Mean Temperature 55 °F 52 °F  
Max Temperature 59 °F 61 °F 75 °F (1951)
Min Temperature 51 °F 43 °F 31 °F (1983)
Degree Days  
Heating Degree Days 10 13  
Month to date heating degree days 87  
Cooling Degree Days 0 0  
Month to date cooling degree days 0  
Year to date cooling degree days 42  
Growing Degree Days 5 (Base 50)    
Moisture  
Dew Point 49 °F    
Average Humidity 80    
Maximum Humidity 94    
Minimum Humidity 63    
Precipitation  
Precipitation 0.03 in 0.09 in 0.89 in (1967)
Month to date precipitation 0.58  
Year to date precipitation 22.71  
Sea Level Pressure  
Sea Level Pressure 29.88 in    
Wind  
Wind Speed 10 mph (SSW)    
Max Wind Speed 16 mph    
Max Gust Speed 22 mph    
Visibility 10 miles    
Events Rain    
T = Trace of Precipitation, MM = Missing Value Source: NWS Daily Summary

Daily Weather History Graph

Daily Weather History Graph

Search for Another Location

Airport:

Trip Planner

Search our weather history database for the weather conditions in past years. The results will help you decide how hot, cold, wet, or windy it might be!

Date:

Astronomy

Oct. 07, 2013 Rise Set
Actual Time 7:20 AM PDT 6:37 PM PDT
Civil Twilight 6:48 AM PDT 7:08 PM PDT
Nautical Twilight 6:12 AM PDT 7:45 PM PDT
Astronomical Twilight 5:35 AM PDT 8:21 PM PDT
Moon 10:32 AM PDT (10/7) 8:09 PM PDT (10/7)
Length of Visible Light 12h 19m
Length of Day
11h 16m
Waxing Crescent, 9% of the Moon is Illuminated
Oct 7
Waxing Crescent
Oct 11
First Quarter
Oct 18
Full
Oct 26
Last Quarter
Nov 3
New

Hourly Weather History & Observations

Time (PDT) Temp. Dew Point Humidity Pressure Visibility Wind Dir Wind Speed Gust Speed Precip Events Conditions
12:15 AM 59.0 °F 46.4 °F 63% 29.82 in 10.0 mi SSW 12.7 mph - N/A   Scattered Clouds
12:35 AM 57.2 °F 48.2 °F 72% 29.82 in 10.0 mi South 11.5 mph - N/A   Mostly Cloudy
12:55 AM 57.2 °F 50.0 °F 77% 29.82 in 9.0 mi South 11.5 mph 17.3 mph N/A Rain Light Rain
1:15 AM 57.2 °F 50.0 °F 77% 29.83 in 10.0 mi SSW 10.4 mph - N/A Rain Light Rain
1:35 AM 55.4 °F 51.8 °F 88% 29.83 in 9.0 mi South 9.2 mph - N/A Rain Light Rain
1:55 AM 55.4 °F 51.8 °F 88% 29.83 in 10.0 mi South 8.1 mph - N/A   Scattered Clouds
2:15 AM 55.4 °F 51.8 °F 88% 29.84 in 10.0 mi SSW 8.1 mph - N/A   Mostly Cloudy
2:35 AM 55.4 °F 51.8 °F 88% 29.84 in 10.0 mi SSW 8.1 mph - N/A   Overcast
2:55 AM 55.4 °F 50.0 °F 82% 29.84 in 10.0 mi SSW 9.2 mph - N/A   Overcast
3:15 AM 55.4 °F 51.8 °F 88% 29.83 in 10.0 mi SSW 8.1 mph - N/A   Mostly Cloudy
3:35 AM 55.4 °F 51.8 °F 88% 29.83 in 10.0 mi SSW 8.1 mph - N/A   Partly Cloudy
3:55 AM 53.6 °F 51.8 °F 94% 29.83 in 10.0 mi SSW 9.2 mph - N/A   Partly Cloudy
4:15 AM 55.4 °F 51.8 °F 88% 29.83 in 10.0 mi South 9.2 mph - N/A   Scattered Clouds
4:35 AM 55.4 °F 51.8 °F 88% 29.83 in 10.0 mi SSW 6.9 mph - N/A   Mostly Cloudy
4:55 AM 53.6 °F 51.8 °F 94% 29.83 in 10.0 mi South 6.9 mph - N/A   Mostly Cloudy
5:15 AM 53.6 °F 51.8 °F 94% 29.83 in 10.0 mi South 8.1 mph - N/A   Mostly Cloudy
5:35 AM 55.4 °F 51.8 °F 88% 29.84 in 10.0 mi South 8.1 mph - N/A   Mostly Cloudy
5:55 AM 53.6 °F 51.8 °F 94% 29.84 in 7.0 mi Calm Calm - N/A Rain Light Rain
6:15 AM 53.6 °F 50.0 °F 88% 29.84 in 9.0 mi South 4.6 mph - N/A Rain Light Rain
6:35 AM 53.6 °F 50.0 °F 88% 29.84 in 7.0 mi South 8.1 mph - N/A Rain Light Rain
6:55 AM 51.8 °F 50.0 °F 94% 29.84 in 5.0 mi South 5.8 mph - 0.03 in Rain Rain
7:15 AM 51.8 °F 50.0 °F 94% 29.83 in 9.0 mi South 9.2 mph - N/A Rain Light Rain
7:35 AM 51.8 °F 50.0 °F 94% 29.83 in 10.0 mi SSW 10.4 mph - N/A   Clear
7:55 AM 51.8 °F 50.0 °F 94% 29.83 in 10.0 mi SSW 12.7 mph 17.3 mph N/A   Clear
8:15 AM 51.8 °F 50.0 °F 94% 29.84 in 10.0 mi South 11.5 mph 18.4 mph N/A   Partly Cloudy
8:35 AM 51.8 °F 50.0 °F 94% 29.84 in 10.0 mi South 9.2 mph 17.3 mph N/A   Partly Cloudy
8:55 AM 53.6 °F 50.0 °F 88% 29.85 in 10.0 mi South 9.2 mph - N/A   Clear
9:15 AM 53.6 °F 50.0 °F 88% 29.87 in 10.0 mi SSW 8.1 mph - N/A   Clear
9:35 AM 53.6 °F 50.0 °F 88% 29.88 in 10.0 mi South 9.2 mph - N/A   Clear
9:55 AM 53.6 °F 50.0 °F 88% 29.88 in 10.0 mi South 3.5 mph - N/A   Clear
10:15 AM 53.6 °F 50.0 °F 88% 29.89 in 10.0 mi SSW 6.9 mph - N/A   Scattered Clouds
10:35 AM 55.4 °F 50.0 °F 82% 29.88 in 10.0 mi South 5.8 mph - N/A   Partly Cloudy
10:55 AM 55.4 °F 50.0 °F 82% 29.88 in 10.0 mi South 8.1 mph - N/A   Clear
11:15 AM 57.2 °F 50.0 °F 77% 29.89 in 10.0 mi South 8.1 mph - N/A   Clear
11:35 AM 57.2 °F 50.0 °F 77% 29.89 in 10.0 mi SSW 9.2 mph - N/A   Clear
11:55 AM 57.2 °F 48.2 °F 72% 29.90 in 10.0 mi SSW 9.2 mph 16.1 mph N/A   Clear
12:15 PM 59.0 °F 48.2 °F 67% 29.90 in 10.0 mi SW 6.9 mph - N/A   Clear
12:35 PM 59.0 °F 48.2 °F 67% 29.90 in 10.0 mi WSW 10.4 mph - N/A   Scattered Clouds
12:55 PM 59.0 °F 48.2 °F 67% 29.90 in 10.0 mi SSW 11.5 mph 16.1 mph N/A   Partly Cloudy
1:15 PM 59.0 °F 46.4 °F 63% 29.90 in 10.0 mi SW 11.5 mph - N/A   Partly Cloudy
1:35 PM 59.0 °F 48.2 °F 67% 29.90 in 10.0 mi South 13.8 mph - N/A   Partly Cloudy
1:55 PM 59.0 °F 46.4 °F 63% 29.91 in 10.0 mi SSW 11.5 mph 17.3 mph N/A   Partly Cloudy
2:15 PM 57.2 °F 48.2 °F 72% 29.91 in 10.0 mi SSW 10.4 mph - N/A   Clear
2:35 PM 59.0 °F 46.4 °F 63% 29.92 in 10.0 mi South 11.5 mph 17.3 mph N/A   Partly Cloudy
2:55 PM 57.2 °F 46.4 °F 67% 29.92 in 10.0 mi SW 11.5 mph 18.4 mph N/A   Scattered Clouds
3:15 PM 57.2 °F 46.4 °F 67% 29.92 in 10.0 mi South 11.5 mph - N/A   Partly Cloudy
3:35 PM 57.2 °F 46.4 °F 67% 29.92 in 10.0 mi SSW 10.4 mph - N/A   Clear
3:55 PM 57.2 °F 46.4 °F 67% 29.92 in 10.0 mi South 11.5 mph 16.1 mph N/A   Clear
4:15 PM 55.4 °F 46.4 °F 72% 29.93 in 10.0 mi South 11.5 mph 17.3 mph N/A   Clear
4:35 PM 55.4 °F 46.4 °F 72% 29.92 in 10.0 mi South 12.7 mph 16.1 mph N/A   Clear
4:55 PM 55.4 °F 46.4 °F 72% 29.92 in 10.0 mi SSW 13.8 mph 19.6 mph N/A   Scattered Clouds
5:15 PM 55.4 °F 46.4 °F 72% 29.92 in 10.0 mi SSW 13.8 mph 21.9 mph N/A   Partly Cloudy
5:35 PM 55.4 °F 46.4 °F 72% 29.92 in 10.0 mi SSW 16.1 mph 19.6 mph N/A   Clear
5:55 PM 55.4 °F 46.4 °F 72% 29.92 in 10.0 mi SSW 12.7 mph 20.7 mph N/A   Clear
6:15 PM 55.4 °F 46.4 °F 72% 29.92 in 10.0 mi SSW 12.7 mph 20.7 mph N/A   Clear
6:35 PM 55.4 °F 46.4 °F 72% 29.92 in 10.0 mi South 11.5 mph 18.4 mph N/A   Mostly Cloudy
6:55 PM 53.6 °F 46.4 °F 77% 29.91 in 10.0 mi South 12.7 mph 16.1 mph N/A   Mostly Cloudy
7:15 PM 53.6 °F 48.2 °F 82% 29.91 in 10.0 mi South 11.5 mph 17.3 mph N/A   Partly Cloudy
7:35 PM 53.6 °F 48.2 °F 82% 29.91 in 10.0 mi South 9.2 mph 17.3 mph N/A   Partly Cloudy
7:55 PM 53.6 °F 48.2 °F 82% 29.92 in 10.0 mi South 9.2 mph - N/A   Partly Cloudy
8:15 PM 53.6 °F 48.2 °F 82% 29.92 in 10.0 mi South 8.1 mph 16.1 mph N/A   Partly Cloudy
8:35 PM 53.6 °F 48.2 °F 82% 29.92 in 10.0 mi South 5.8 mph 18.4 mph N/A   Scattered Clouds
8:55 PM 53.6 °F 48.2 °F 82% 29.92 in 10.0 mi SSE 10.4 mph 16.1 mph N/A   Scattered Clouds
9:15 PM 53.6 °F 48.2 °F 82% 29.92 in 10.0 mi SSE 6.9 mph - N/A   Mostly Cloudy
9:35 PM 53.6 °F 48.2 °F 82% 29.93 in 10.0 mi South 8.1 mph - N/A   Mostly Cloudy
9:55 PM 53.6 °F 48.2 °F 82% 29.93 in 10.0 mi SSW 6.9 mph - N/A   Overcast
10:15 PM 53.6 °F 48.2 °F 82% 29.93 in 10.0 mi South 5.8 mph - N/A   Mostly Cloudy
10:35 PM 53.6 °F 48.2 °F 82% 29.93 in 10.0 mi South 5.8 mph - N/A   Mostly Cloudy
10:55 PM 53.6 °F 48.2 °F 82% 29.93 in 10.0 mi SW 6.9 mph - N/A   Overcast
11:15 PM 53.6 °F 48.2 °F 82% 29.94 in 10.0 mi South 4.6 mph - N/A   Overcast
11:35 PM 53.6 °F 48.2 °F 82% 29.94 in 10.0 mi SSW 8.1 mph - N/A   Overcast
11:55 PM 53.6 °F 46.4 °F 77% 29.94 in 10.0 mi SW 6.9 mph - N/A   Mostly Cloudy